Theta_e
321 323 324 324 323 321 322 322 321 323 327 327 323 321 325 324 321 325 328 327 329 332 333 338 339 337 338 340 340 339 341 343 342 343 343 343 343 344 344 344 344 345 345 345 345 345 345 345 345 346 347 345 345 346 345 346 347 347 347 348 349 349 347
320 322 323 324 324 324 322 320 322 325 325 328 329 324 323 323 320 323 327 325 325 325 328 337 342 338 338 340 340 340 342 343 343 343 343 341 342 343 342 343 344 344 345 344 345 345 345 345 344 345 346 346 345 346 346 346 346 347 347 348 349 349 346
321 321 321 321 323 324 322 322 325 325 320 324 329 325 322 322 320 322 324 324 325 324 326 333 338 340 343 343 344 342 340 342 343 342 342 341 341 342 342 342 343 344 344 345 345 345 345 345 345 345 345 345 345 346 346 346 346 346 346 348 350 349 345
321 321 319 318 319 321 322 323 325 325 322 324 326 324 321 321 320 320 322 323 324 326 331 334 335 344 351 347 347 346 341 341 343 342 342 341 340 341 341 342 342 343 344 344 344 345 345 345 344 344 345 346 346 345 346 346 346 347 346 348 349 348 345
319 319 320 319 320 321 320 320 321 322 324 324 324 324 322 321 321 322 321 321 322 330 338 340 338 344 349 348 349 349 345 341 340 340 340 340 340 340 341 341 342 342 343 344 344 345 345 345 345 345 346 346 346 345 345 345 346 347 347 348 349 349 346
317 320 322 322 322 323 321 321 321 321 322 322 320 321 323 321 322 323 322 319 321 332 340 340 343 344 341 343 347 346 344 341 339 338 338 338 339 339 341 340 341 342 342 343 344 345 345 345 346 346 346 345 346 346 346 345 346 347 347 348 348 349 349
322 322 323 322 321 324 324 322 324 323 324 322 318 319 322 321 322 323 322 319 322 338 348 340 341 343 338 339 342 341 340 337 337 338 336 337 338 338 340 340 341 341 342 343 344 344 345 345 346 346 346 345 346 345 345 345 346 346 347 348 348 349 351
325 322 322 322 321 322 322 321 325 323 323 323 320 325 327 323 321 321 322 319 321 342 360 347 341 343 339 337 337 338 338 335 334 336 336 336 337 338 339 340 341 341 342 343 344 343 345 345 345 346 346 346 345 345 345 346 346 346 347 348 348 349 351
321 321 321 321 320 322 320 322 324 322 325 325 324 331 331 324 322 323 321 318 321 340 360 351 342 339 336 336 336 336 337 336 335 335 335 335 336 337 339 339 340 341 341 343 343 343 345 344 345 346 346 346 345 345 346 345 346 346 347 348 349 349 350
319 319 320 320 321 322 321 323 324 322 325 324 323 327 324 321 327 328 321 319 325 342 353 347 342 341 339 340 339 337 336 334 334 336 335 336 336 336 338 339 340 341 341 343 343 344 344 344 345 346 345 346 346 345 346 346 346 347 347 349 349 349 350
320 321 325 327 326 322 319 321 322 322 323 324 326 325 320 324 329 326 326 329 328 334 343 344 344 344 343 345 343 340 338 333 334 336 335 336 337 337 338 338 340 341 341 343 343 343 344 344 344 345 345 346 346 345 346 346 348 348 348 349 349 350 351
325 326 329 328 326 322 321 322 322 322 323 324 325 322 325 334 327 318 333 348 333 329 342 346 346 347 348 351 348 343 339 335 335 336 335 337 338 337 339 338 339 341 340 342 343 343 343 343 344 345 345 345 345 345 346 347 348 348 348 349 349 351 352
325 326 326 326 325 324 323 323 322 323 324 323 324 323 330 338 326 318 340 355 339 332 338 341 343 348 350 350 345 339 337 336 336 337 336 337 338 338 339 339 339 340 340 341 342 342 342 343 344 344 344 345 346 345 346 347 348 348 348 348 350 351 352
324 325 324 325 325 324 323 324 324 324 324 323 324 325 329 333 330 327 342 353 344 335 336 339 342 342 341 341 338 337 337 337 336 338 338 338 338 338 339 339 339 340 340 340 341 341 342 342 343 343 343 344 345 345 346 346 347 347 348 349 350 351 351
323 324 324 324 323 323 322 322 324 324 323 324 324 325 328 330 332 333 337 342 342 337 338 341 340 336 337 339 339 338 338 337 337 338 338 338 338 338 339 340 339 340 340 341 341 341 341 341 342 343 342 343 344 345 345 345 346 347 348 349 350 351 351
322 323 324 324 322 323 321 321 323 323 322 322 322 325 328 328 330 333 331 330 333 336 339 340 337 338 340 343 344 343 339 337 338 338 338 338 338 338 339 339 339 340 340 341 341 340 340 341 341 341 341 342 343 344 344 345 346 346 347 348 349 349 350
323 325 325 323 321 320 319 320 324 323 323 324 323 324 329 329 330 331 329 328 333 339 340 338 337 340 343 344 343 341 339 337 337 337 336 337 337 338 339 339 339 340 340 340 341 340 340 339 339 339 340 341 342 342 343 344 344 345 345 346 347 348 350
324 325 324 322 321 319 320 325 327 325 324 325 324 323 327 328 330 334 335 337 342 343 339 338 341 342 343 341 337 336 338 338 337 338 338 338 338 339 339 340 340 340 340 341 341 341 340 340 340 340 341 342 342 342 343 343 343 344 345 345 346 348 349
325 326 324 321 320 322 327 334 332 327 325 324 326 329 333 332 332 336 339 340 344 345 339 338 341 340 337 334 332 333 334 334 336 338 339 339 338 339 339 339 340 340 340 341 341 340 341 341 342 342 341 341 341 341 341 343 343 344 344 345 346 348 349
326 325 323 322 325 328 332 334 332 329 328 326 325 329 334 336 335 335 336 337 341 343 339 337 336 334 333 333 332 332 332 333 335 336 337 339 338 338 339 339 340 340 340 340 341 341 341 340 339 338 336 335 335 336 337 339 340 343 344 345 346 347 348
327 325 323 325 328 329 331 334 335 332 331 330 329 328 332 338 337 336 337 339 340 338 337 337 334 332 334 336 336 334 333 333 335 336 337 339 338 338 339 339 340 341 340 340 339 337 336 335 334 333 331 330 330 331 333 335 337 340 342 344 346 346 348
328 326 325 326 325 325 330 335 335 334 333 334 334 333 334 337 337 336 338 339 339 338 336 336 335 334 335 337 338 337 334 333 335 337 337 338 339 340 340 340 340 340 337 336 335 333 332 331 330 329 329 329 330 331 332 333 335 336 338 341 345 346 348
328 327 325 326 324 327 335 337 334 334 334 334 334 330 330 335 337 337 337 336 336 338 337 337 338 337 335 338 341 338 334 333 335 336 338 339 340 340 340 339 338 336 334 333 333 332 332 331 330 330 330 330 330 330 331 331 331 332 334 339 344 345 347
328 329 327 326 327 332 337 335 333 334 334 334 332 326 328 337 339 336 335 334 335 338 338 337 340 341 340 341 340 335 333 335 337 337 340 340 339 339 338 336 335 335 335 334 333 333 332 332 332 332 331 331 330 328 328 329 329 330 334 339 343 346 347
327 328 326 326 329 334 335 332 333 334 333 331 329 328 333 340 339 336 336 334 335 338 338 338 342 344 342 340 337 336 337 336 336 337 338 337 337 337 337 337 338 337 335 334 333 333 334 333 333 333 333 332 330 329 329 329 330 333 336 341 344 346 348
331 331 328 326 329 333 333 332 333 333 331 329 332 335 338 339 339 339 338 336 338 342 344 346 346 345 344 345 346 347 345 341 338 338 337 337 338 338 339 339 338 336 335 335 335 334 334 334 334 333 333 332 331 330 331 332 334 335 338 342 345 346 347
335 334 330 326 329 332 333 332 335 336 335 335 338 339 339 339 341 342 342 342 343 345 345 346 346 346 348 349 349 350 348 346 344 342 339 339 339 339 339 338 337 336 336 335 336 336 336 336 335 334 334 334 333 333 333 334 335 336 338 342 346 347 347
337 338 335 331 333 334 333 332 333 335 335 336 339 340 340 340 341 341 341 341 342 343 344 343 343 343 343 343 342 341 341 341 341 339 338 337 337 336 336 336 336 337 336 336 337 338 338 337 337 337 336 336 336 335 335 336 336 336 338 343 347 348 347
339 342 343 340 337 335 333 331 331 331 331 333 335 338 338 337 337 338 338 337 336 338 339 338 338 339 337 334 332 332 331 331 330 331 330 330 330 330 329 330 331 332 332 334 336 337 338 339 339 339 340 340 339 338 338 337 337 337 339 344 346 347 347
338 337 339 338 337 334 331 330 329 329 329 330 330 331 332 332 333 335 335 333 331 331 331 331 333 334 332 330 328 328 328 327 326 326 327 327 328 327 326 326 326 326 326 328 331 334 336 337 338 339 340 340 341 341 340 340 339 341 343 345 346 346 347
336 337 336 334 335 334 330 328 328 327 328 327 326 327 328 328 330 331 331 331 329 328 328 328 329 329 329 328 327 327 327 327 327 327 328 328 327 327 326 325 326 325 325 325 329 334 336 336 337 338 339 339 341 342 343 343 343 344 345 345 345 345 346
336 339 337 333 332 331 328 327 327 325 325 325 324 325 325 326 327 328 329 330 330 330 331 331 331 331 331 330 330 330 329 329 328 327 327 326 326 325 325 324 326 328 328 327 330 335 338 337 337 337 337 338 338 339 341 342 344 346 346 345 344 344 344
334 335 334 333 332 330 328 328 326 323 324 324 324 324 325 325 326 326 327 329 330 332 334 335 335 336 336 335 335 334 333 332 331 330 330 330 329 329 328 328 329 332 333 332 332 335 335 335 335 335 334 335 335 337 339 341 343 345 345 344 344 343 342
335 334 332 333 334 333 330 327 325 323 324 325 324 324 324 324 324 324 325 326 327 328 331 332 333 335 335 336 336 336 336 335 335 334 333 332 331 331 331 331 331 332 333 332 331 332 333 333 333 333 333 334 335 337 339 341 343 344 344 344 344 342 341
332 331 329 330 332 332 329 326 324 324 324 325 325 324 324 323 323 323 323 323 324 324 325 327 328 330 331 332 334 334 335 335 336 336 335 334 333 332 331 331 332 332 332 333 333 333 334 334 334 333 334 336 337 338 339 341 343 344 344 343 342 341 340
326 326 326 326 326 326 324 323 323 323 322 323 323 322 322 322 323 323 323 323 323 323 323 323 324 325 326 328 329 330 330 332 333 335 335 335 335 334 333 332 333 332 333 334 334 334 334 334 334 335 335 336 338 339 339 341 342 343 342 342 341 340 339
325 325 324 323 323 323 322 321 321 321 321 321 321 321 321 321 321 321 321 321 322 322 321 321 322 322 324 325 325 326 327 328 330 332 333 334 336 336 335 335 335 334 334 333 333 333 333 333 334 334 335 337 338 338 339 340 341 341 341 340 340 340 340
Wind_Speed
8 10 8 9 9 6 4 5 7 4 3 5 4 1 1 2 4 4 4 4 3 2 8 9 7 8 11 11 11 14 16 18 19 21 26 31 36 41 45 48 50 51 50 50 49 48 46 45 44 43 42 40 39 39 39 39 38 37 36 35 34 33 33
11 11 11 11 11 7 4 7 8 4 2 2 2 3 3 4 7 4 4 7 6 3 4 3 2 7 12 11 11 12 10 14 20 24 29 34 37 41 44 47 50 51 50 51 50 49 48 46 44 42 40 39 39 39 39 39 39 39 38 36 35 34 34
9 8 9 10 10 6 1 4 9 6 4 4 2 4 5 5 7 4 5 7 6 6 5 3 4 6 9 11 10 8 8 14 20 23 29 34 36 39 42 45 48 50 50 51 51 50 49 47 45 42 40 40 40 40 39 39 39 39 39 38 37 36 35
5 6 7 10 10 6 1 3 8 3 3 5 4 4 4 6 7 4 5 6 4 6 6 6 9 8 7 10 9 7 11 16 21 23 28 33 37 39 41 44 46 48 50 50 50 50 49 47 45 42 42 42 40 39 39 40 40 40 40 39 37 36 36
4 6 7 11 12 9 5 7 8 4 2 1 2 3 2 4 6 4 6 7 4 4 5 8 12 10 9 11 10 8 9 15 22 27 30 34 38 40 41 43 44 46 47 48 48 49 48 47 45 44 44 43 41 41 40 40 40 41 41 41 39 38 38
7 8 9 12 14 12 10 9 8 9 7 4 5 6 3 2 4 4 5 7 4 5 6 9 11 10 10 11 9 8 10 14 19 24 29 34 37 39 41 41 42 43 45 46 46 47 47 47 46 45 45 44 43 43 41 40 41 41 41 41 40 40 39
9 8 6 7 11 13 13 12 11 11 9 8 9 8 4 3 3 1 1 6 4 4 5 8 10 9 10 11 9 8 14 20 19 16 22 29 33 37 38 39 40 41 43 44 44 44 44 44 45 44 44 45 45 43 42 41 41 41 40 41 41 40 40
6 5 2 2 2 7 12 13 12 12 12 13 11 5 3 5 5 4 2 5 4 3 2 5 7 7 9 11 13 12 16 24 22 15 17 23 28 32 34 37 39 39 40 42 42 42 42 43 43 44 44 45 45 44 44 43 42 41 41 41 42 41 42
5 6 6 5 3 5 8 8 9 12 16 14 7 1 2 5 8 10 7 6 5 3 1 1 4 8 9 12 15 15 16 23 23 17 17 19 23 27 31 34 37 38 39 40 40 40 41 42 42 43 43 43 43 44 45 45 44 43 42 43 43 42 42
9 9 8 7 5 4 4 4 6 10 15 14 7 3 5 7 6 8 9 6 4 2 2 3 5 7 9 13 15 14 17 25 25 21 19 18 20 25 29 32 35 37 38 38 39 39 39 40 40 41 41 41 41 43 44 45 45 44 44 45 44 43 43
10 9 7 6 6 7 8 8 10 11 12 14 9 5 7 5 4 6 9 6 6 6 6 6 7 8 9 12 11 12 21 30 29 24 20 18 20 25 28 31 34 35 36 37 37 37 37 37 38 38 37 38 39 40 41 43 44 45 46 46 45 44 44
14 14 12 10 11 13 14 14 15 14 14 15 14 11 8 5 5 8 7 6 9 10 8 9 10 9 8 8 9 14 23 30 27 22 19 19 21 25 28 31 34 35 36 36 36 35 35 35 35 35 35 36 36 37 38 40 42 43 44 44 44 44 45
16 18 17 12 11 14 15 17 18 17 17 17 16 14 10 8 8 11 7 8 10 10 10 10 10 10 10 13 18 22 23 25 23 20 20 22 23 26 29 32 34 35 36 35 34 33 32 33 33 33 33 34 33 34 35 37 38 39 39 40 41 42 45
15 17 16 12 12 13 12 15 17 17 19 20 19 18 16 14 13 12 9 11 12 11 10 10 11 13 13 14 18 19 19 22 22 21 22 24 26 29 32 33 34 34 34 32 31 30 30 30 30 30 30 29 29 30 32 33 34 35 35 36 39 40 42
11 13 14 12 14 15 15 16 16 15 16 17 17 16 13 13 11 9 7 8 9 8 7 7 8 9 8 9 11 13 18 21 22 22 24 26 29 31 33 34 35 34 33 31 29 28 28 27 26 26 25 24 26 27 28 29 30 31 32 34 36 37 39
6 7 9 12 15 16 17 19 17 14 12 12 12 11 9 10 10 8 7 6 6 7 7 6 7 6 6 8 10 13 18 21 22 25 27 28 30 32 33 34 33 33 31 30 28 26 25 23 22 21 21 22 23 24 24 25 26 27 29 30 32 34 35
4 2 3 6 8 9 11 14 16 16 13 10 10 9 9 11 11 9 8 8 8 7 6 6 8 8 8 11 14 18 21 22 25 28 29 30 31 32 32 31 31 31 30 28 26 24 22 21 20 19 19 19 18 17 18 19 21 23 25 27 29 31 33
3 2 2 2 5 7 7 7 12 17 18 17 15 13 12 13 11 6 4 5 7 6 6 8 10 10 11 14 18 19 19 20 24 26 26 27 28 29 29 28 29 30 28 25 24 24 22 21 19 17 15 12 10 10 12 14 16 19 21 23 26 28 31
3 1 1 4 5 5 3 2 3 11 15 18 18 13 9 11 11 7 6 7 8 7 7 9 8 7 9 10 12 13 15 16 19 21 21 20 22 25 26 27 28 27 25 24 23 22 20 17 14 12 9 8 8 8 8 10 11 14 16 20 23 26 29
2 1 2 3 3 4 5 4 1 3 5 9 11 8 6 9 10 10 11 11 8 5 6 7 6 5 5 4 3 6 10 12 14 16 17 16 19 23 25 26 25 22 19 18 17 15 14 13 13 13 12 11 9 7 6 6 7 10 12 16 20 23 26
2 3 3 4 5 5 4 2 1 2 1 3 6 7 8 9 9 9 10 10 7 5 5 7 8 8 7 4 0 2 5 9 11 13 14 15 17 20 19 17 16 14 14 14 15 17 18 18 17 16 14 12 10 9 8 6 6 7 10 13 17 21 24
1 3 4 3 6 5 2 2 4 5 7 6 4 5 5 6 7 9 10 9 8 8 7 8 13 11 7 5 1 1 4 8 10 10 11 11 12 12 13 14 17 19 22 23 23 23 22 20 18 15 13 11 9 8 6 4 4 6 8 11 15 18 21
2 3 4 4 5 3 3 5 7 10 11 9 5 5 6 6 8 10 11 10 10 9 9 12 14 11 7 5 1 2 6 9 10 12 14 16 17 18 20 24 27 28 29 27 25 23 21 19 16 13 11 8 6 5 3 2 4 6 7 10 13 15 18
3 2 4 4 4 2 7 10 13 17 14 6 4 7 5 5 7 9 10 10 9 9 12 14 10 5 5 6 6 9 13 13 15 20 24 25 27 28 29 30 30 28 26 25 23 21 18 16 13 10 8 6 4 3 2 3 5 6 7 8 10 13 16
5 4 5 5 4 1 7 14 20 19 11 4 7 6 2 2 4 7 8 9 8 8 11 11 6 4 11 18 19 20 22 23 25 28 30 32 33 32 31 29 27 25 23 22 20 18 15 13 10 9 7 5 4 4 4 6 6 7 7 8 9 12 16
4 4 4 6 4 1 9 21 22 13 4 4 4 2 5 4 3 6 8 8 9 8 8 10 12 16 21 26 28 28 29 32 34 33 34 35 34 32 30 28 25 23 22 20 17 15 13 11 10 9 7 6 5 5 5 6 6 7 8 8 10 12 15
1 2 2 4 3 3 13 20 14 4 3 4 2 3 6 6 7 11 12 12 14 17 19 19 20 23 26 30 34 35 35 36 36 35 35 36 34 31 29 27 24 21 19 17 15 14 12 11 9 8 6 5 5 5 5 5 6 8 9 9 10 12 13
3 3 2 1 2 5 12 12 6 6 10 11 6 4 7 8 10 14 17 18 19 23 25 24 25 29 32 34 37 37 36 34 33 32 31 31 29 28 26 24 21 18 17 15 13 11 10 9 8 6 5 5 5 6 5 6 7 8 9 10 10 11 12
3 2 2 2 1 6 10 9 9 12 13 10 8 8 10 10 11 14 16 19 23 26 29 31 32 33 34 35 35 35 35 34 33 31 29 27 25 23 21 19 16 14 13 12 10 9 8 7 6 5 4 5 6 6 6 6 7 9 10 10 10 10 12
3 1 1 3 3 4 7 10 12 13 11 11 12 13 14 14 16 18 18 21 24 28 32 35 34 32 33 34 33 32 32 32 31 29 26 22 20 17 16 15 13 11 10 9 7 7 7 6 6 6 6 7 7 7 7 7 8 10 10 10 10 11 12
4 2 4 5 6 5 4 7 11 12 12 13 15 19 19 20 22 24 24 24 25 27 30 32 30 28 29 29 28 27 26 25 24 23 20 18 16 14 14 14 12 9 8 7 6 6 6 6 7 8 9 9 9 8 8 7 9 11 11 11 11 12 12
1 1 6 9 9 10 8 6 10 13 13 14 18 22 23 23 25 26 26 25 25 25 26 26 27 27 26 25 25 24 23 22 21 21 19 18 17 15 14 12 10 8 7 7 7 5 5 6 7 8 9 9 9 8 8 8 9 11 12 12 13 13 13
1 1 6 11 12 8 6 6 9 13 15 17 21 26 27 27 28 28 29 29 28 27 26 24 25 26 24 23 23 22 21 21 20 19 18 17 15 14 13 12 10 9 8 9 8 7 6 5 6 7 7 8 9 9 9 9 9 11 12 13 13 13 12
3 2 6 8 8 7 6 7 13 18 19 18 21 25 28 30 30 30 30 30 29 27 26 24 25 26 24 22 20 20 19 17 16 15 15 14 14 13 12 11 9 8 8 8 8 7 6 5 5 6 7 9 9 9 8 8 9 10 11 11 12 13 12
1 2 3 3 1 7 10 10 14 19 19 18 19 22 25 27 28 27 27 28 28 27 25 23 23 24 23 20 18 18 18 15 12 11 11 10 11 10 10 9 8 6 6 5 5 4 3 3 3 4 5 6 7 7 8 9 9 9 10 11 12 11 10
5 7 11 9 10 15 17 16 17 21 22 23 26 26 25 26 26 25 24 25 25 24 23 22 21 21 21 19 17 17 17 15 12 10 8 7 7 7 6 6 5 4 4 3 2 2 2 2 3 3 4 5 6 8 9 9 10 10 11 12 11 10 11
6 15 23 25 24 24 23 23 23 24 24 26 28 26 24 25 24 23 23 23 21 20 20 20 20 20 19 18 17 16 16 15 13 11 9 7 5 3 3 3 3 4 4 3 3 3 3 4 4 4 5 5 6 7 8 9 10 11 12 13 12 11 13
Wind_Direction
195 194 177 171 192 191 157 182 207 205 150 171 178 157 82 140 214 197 174 232 249 253 284 273 248 253 254 246 237 229 218 204 205 208 206 208 212 215 219 221 223 225 226 227 229 230 231 230 229 229 229 229 228 228 228 228 227 228 229 230 231 232 231
213 205 189 194 204 175 153 200 182 106 55 214 192 201 168 184 223 206 172 221 225 204 244 258 243 248 250 247 233 226 207 189 204 213 210 213 216 217 221 222 224 225 225 225 226 228 230 230 230 230 230 229 229 230 230 229 228 228 228 229 231 232 231
198 182 196 210 203 182 209 195 159 139 202 195 168 212 194 192 223 212 186 217 226 213 215 231 242 241 251 257 240 215 199 198 209 213 212 216 216 216 220 221 222 223 223 224 225 226 228 229 230 231 231 230 230 231 232 231 231 230 230 230 231 232 232
171 156 195 214 204 187 42 161 167 185 227 189 182 199 185 201 221 216 199 210 213 213 210 216 234 239 246 259 254 220 211 211 213 213 211 212 214 215 217 218 221 221 222 224 225 226 227 228 230 230 231 231 230 231 232 231 232 231 231 232 232 233 233
176 189 198 213 211 193 186 192 186 188 196 172 204 199 170 210 215 205 219 225 196 191 207 212 225 232 230 243 254 243 226 218 220 222 218 215 215 216 216 217 220 222 222 223 223 225 227 228 229 228 228 230 230 230 231 231 232 231 231 232 233 234 233
203 207 193 210 219 205 197 204 197 192 189 173 203 211 186 204 219 196 220 241 212 173 195 211 218 228 229 234 244 255 255 244 235 230 224 221 220 217 217 218 220 221 222 221 221 223 224 226 227 226 227 229 230 230 230 231 232 233 233 233 233 234 234
216 209 181 203 224 211 201 207 205 202 202 198 210 217 179 173 218 131 201 251 231 168 188 210 215 226 238 240 239 250 261 260 256 242 228 225 223 220 219 218 219 220 221 220 220 222 224 225 226 226 227 228 230 231 231 232 232 234 235 235 235 235 235
237 229 179 126 230 210 206 211 204 201 209 214 221 219 172 190 196 163 194 240 211 162 182 219 235 250 257 254 242 238 254 261 262 253 236 228 223 221 219 216 218 219 221 221 220 222 224 224 225 226 226 228 230 231 232 232 233 235 235 236 237 236 235
232 227 214 199 199 203 213 215 203 206 209 208 213 134 150 219 199 185 213 230 190 169 146 198 244 256 259 257 246 238 249 259 259 254 244 233 224 221 217 215 216 219 220 221 220 222 223 223 224 225 227 229 230 231 233 233 234 235 236 237 238 237 236
219 218 217 213 200 191 216 215 196 209 206 195 183 149 205 223 188 187 221 227 183 187 235 218 226 238 249 254 249 243 249 256 258 254 246 233 222 220 216 213 214 216 218 219 219 220 222 223 225 226 228 230 231 233 234 234 235 236 236 237 238 238 237
219 220 216 196 180 188 209 212 200 202 202 196 189 197 216 205 154 202 222 218 211 208 205 218 222 219 235 248 247 242 246 251 254 253 246 232 223 219 214 211 211 212 216 217 218 219 221 223 226 228 229 231 232 234 235 235 236 237 238 239 239 239 237
219 223 218 195 191 204 209 211 210 200 193 196 200 213 210 153 164 221 209 190 216 211 196 211 219 217 227 242 242 239 243 246 249 248 239 225 219 216 210 210 210 211 214 216 217 219 221 224 226 227 230 231 233 236 236 237 237 238 241 242 241 240 238
221 225 223 201 196 214 213 211 212 202 193 195 201 214 205 163 202 232 200 180 208 209 204 212 216 215 217 226 233 237 242 245 245 240 226 215 213 211 209 210 210 211 213 214 217 219 221 223 225 226 229 231 234 236 237 238 239 241 245 244 243 241 240
228 231 230 205 197 219 223 217 213 204 199 198 201 210 204 191 214 229 198 191 207 209 209 212 217 222 225 233 238 237 237 237 233 225 215 209 210 211 211 210 209 211 213 214 216 219 221 222 223 225 228 231 233 235 236 239 240 243 245 245 243 242 242
235 235 232 217 208 218 226 226 221 210 204 202 204 211 203 194 213 228 204 202 217 222 221 227 239 242 239 241 237 227 226 224 218 214 212 210 211 213 213 210 208 208 210 211 214 217 219 221 222 224 227 230 233 234 237 239 241 243 245 244 244 244 245
240 230 237 232 216 215 227 230 223 211 204 204 208 208 194 188 203 217 215 215 229 234 225 228 247 251 238 237 235 229 228 221 214 214 214 213 213 213 212 209 206 207 207 208 211 212 215 219 220 222 225 228 231 234 237 241 242 244 246 245 246 247 247
263 268 269 240 209 211 230 231 222 213 203 202 210 209 200 200 201 205 211 215 226 228 203 198 223 226 224 235 237 234 230 224 220 221 221 218 214 211 210 209 206 207 207 207 209 209 210 211 212 216 223 230 236 241 244 248 248 248 249 249 250 249 247
278 353 65 163 196 219 228 219 216 214 207 204 210 211 210 211 209 208 222 223 222 217 193 196 213 215 218 236 244 245 240 229 224 225 224 220 213 208 209 210 209 208 207 207 209 210 210 211 214 221 227 232 238 240 243 246 247 249 251 251 251 249 246
280 4 153 202 221 243 282 343 218 215 215 213 213 215 217 213 209 212 232 232 223 215 207 209 220 223 225 240 258 263 256 243 231 227 226 223 215 209 206 207 208 207 204 205 210 213 214 214 212 209 201 192 191 201 216 229 239 246 249 250 250 247 245
271 269 238 248 282 307 311 330 64 170 199 201 204 222 233 215 208 211 220 227 223 214 222 227 228 222 212 217 268 267 250 241 234 229 228 225 219 214 208 204 204 203 202 204 205 201 192 180 168 158 151 150 154 162 180 204 226 239 246 249 249 247 247
290 296 280 275 294 287 258 239 88 91 155 186 198 220 216 196 197 207 217 232 231 213 222 214 184 170 174 178 346 304 230 218 213 213 216 217 216 216 211 202 193 184 174 167 161 155 148 143 139 136 135 138 142 150 165 183 207 229 243 249 249 248 248
305 303 303 297 286 273 203 103 34 4 332 314 290 254 214 182 189 203 211 224 217 197 191 176 162 160 178 199 196 38 202 201 198 193 191 191 193 192 179 162 150 144 140 137 137 136 131 129 128 128 131 136 139 147 159 172 202 231 245 248 249 250 249
298 297 315 308 279 286 32 31 1 344 330 322 299 243 215 186 188 199 205 210 206 194 177 165 161 165 183 199 181 120 158 171 169 159 148 144 144 144 142 138 135 133 131 130 128 127 126 127 127 127 128 127 128 137 151 187 233 253 259 257 257 257 254
296 281 299 290 261 327 19 4 339 327 322 314 229 218 203 162 168 185 195 201 199 183 165 158 162 184 178 153 128 129 137 142 143 139 134 132 133 132 131 129 128 127 127 126 124 123 125 126 125 126 129 131 141 163 198 232 247 257 265 268 268 264 257
285 272 276 284 271 14 15 349 333 323 311 253 207 218 219 108 154 171 178 181 175 171 167 158 144 118 123 125 124 124 124 124 126 127 128 128 128 127 126 125 123 122 122 122 121 120 123 128 133 142 148 156 176 202 223 238 247 255 262 268 267 262 257
284 275 270 291 285 76 10 343 332 322 283 219 210 296 352 10 98 124 128 135 134 129 124 117 111 114 121 123 121 119 117 117 117 119 120 121 120 119 119 118 120 122 122 121 121 123 130 141 149 155 162 174 193 212 231 245 254 261 264 266 265 262 259
207 244 252 293 283 20 7 349 338 346 336 301 302 32 23 30 76 96 96 98 109 111 105 102 105 110 114 115 114 113 111 110 111 113 116 116 116 117 118 118 119 122 122 121 123 127 134 141 146 154 166 183 199 213 233 249 261 267 268 266 264 263 259
175 204 208 256 294 354 10 4 340 327 329 318 319 58 66 57 69 86 88 89 99 108 108 106 105 104 104 106 107 108 107 105 105 105 107 109 112 116 119 119 121 123 124 124 126 131 138 145 152 162 174 190 204 215 233 253 268 273 268 260 258 260 258
168 197 200 143 22 350 8 15 346 333 339 343 0 52 72 62 63 78 87 92 98 103 103 102 100 99 100 100 101 102 103 103 102 98 96 96 97 100 104 107 110 117 123 126 132 139 146 155 165 175 194 214 223 230 239 253 269 274 265 254 250 252 252
126 91 161 137 103 22 8 11 1 356 6 19 35 57 67 64 69 79 86 93 98 100 100 99 97 98 100 99 98 99 99 99 101 100 96 90 86 87 93 97 102 112 121 128 144 157 165 179 193 209 227 235 239 245 247 256 270 272 261 250 244 245 246
159 182 181 154 123 110 74 18 14 23 30 38 56 68 71 73 77 80 83 89 94 95 97 96 96 98 101 100 99 100 99 97 99 101 100 96 96 100 104 106 112 123 130 137 151 162 174 190 205 219 228 235 244 253 258 265 270 267 259 250 244 242 242
183 225 160 130 108 111 111 66 36 39 43 53 70 78 80 82 82 80 81 84 86 87 90 94 95 95 96 98 98 98 99 98 97 98 100 103 105 107 109 113 119 126 134 144 153 162 171 188 206 219 230 242 255 262 264 266 266 264 260 253 247 243 241
76 43 144 122 107 112 127 109 91 85 80 81 84 87 88 86 84 82 81 80 81 83 86 90 93 91 89 93 95 95 94 94 94 95 98 101 103 106 112 119 125 130 137 144 154 168 183 200 219 232 246 258 263 263 260 257 258 260 259 255 250 246 242
159 158 174 147 124 132 151 138 126 119 111 103 95 90 89 89 87 85 83 81 81 82 81 83 87 87 85 88 92 92 90 89 91 95 97 101 106 110 114 120 127 136 144 149 160 179 198 220 239 252 262 264 263 260 255 249 250 254 254 252 251 248 241
12 61 166 203 113 115 123 128 129 124 119 114 104 94 91 91 89 86 84 82 80 79 78 78 81 82 83 85 88 88 84 81 87 94 98 103 110 115 120 123 126 136 145 151 166 185 203 233 260 277 278 274 268 260 250 241 241 244 244 245 247 245 235
351 63 99 94 78 96 112 121 122 117 111 108 104 97 92 91 88 84 83 82 79 78 78 78 79 80 82 83 85 85 82 78 79 85 91 101 112 124 133 133 134 146 154 159 179 198 224 261 291 309 302 285 270 256 244 236 232 231 234 238 239 234 224
81 90 101 102 96 98 108 113 110 107 106 104 101 97 94 93 91 88 84 83 83 82 79 78 79 80 81 82 81 80 79 75 72 73 76 79 88 112 140 147 154 170 182 200 215 224 244 263 277 291 298 289 275 260 243 230 224 222 228 233 234 235 233